When you browse on this site, cookies collect data to enhance your experience and personalize the content and advertising you see.
Visit our Privacy Policy to learn more. By continuing to use the site, you agree to this use of cookies and data.
  • en France
  • Liste des pays
  • À 7 jours
  • Température de l'eau
  • Carte satellitaire
  • Carte météo
  • Widgets météo
  • user-avatar
    Se connecter

    Météo par heure à Buenos Aires

    Ce jour, 16 Janvier, Mercredi

    Heure Température Précipitation Vent Pression Humidité
    00:00 +24°C° 0 mm 2 m/s 756 mmHg 77%
    01:00 +23°C° 0 mm 2 m/s 756 mmHg 78%
    02:00 +23°C° 0 mm 2 m/s 755 mmHg 82%
    03:00 +21°C° 0 mm 2 m/s 755 mmHg 82%
    04:00 +21°C° 0 mm 2 m/s 755 mmHg 82%
    05:00 +21°C° 0 mm 2 m/s 755 mmHg 82%
    06:00 +23°C° 0 mm 2 m/s 756 mmHg 75%
    07:00 +24°C° 0 mm 2 m/s 756 mmHg 67%
    08:00 +26°C° 0 mm 1 m/s 756 mmHg 60%
    09:00 +28°C° 0 mm 1 m/s 756 mmHg 51%
    10:00 +29°C° 0 mm 0 m/s 756 mmHg 41%
    11:00 +31°C° 0 mm 0 m/s 757 mmHg 32%
    12:00 +32°C° 0 mm 0 m/s 756 mmHg 29%
    13:00 +35°C° 0 mm 1 m/s 756 mmHg 26%
    14:00 +36°C° 0 mm 1 m/s 756 mmHg 23%
    15:00 +36°C° 0 mm 1 m/s 756 mmHg 23%
    16:00 +35°C° 0 mm 1 m/s 755 mmHg 24%
    17:00 +36°C° 0 mm 2 m/s 755 mmHg 25%
    18:00 +34°C° 0 mm 2 m/s 755 mmHg 28%
    19:00 +32°C° 0 mm 2 m/s 756 mmHg 31%
    20:00 +31°C° 0 mm 3 m/s 756 mmHg 33%
    21:00 +30°C° 0 mm 2 m/s 757 mmHg 35%
    22:00 +29°C° 0 mm 2 m/s 758 mmHg 36%
    23:00 +29°C° 0 mm 2 m/s 758 mmHg 38%

    Demain, 17 Janvier, Jeudi

    Heure Température Précipitation Vent Pression Humidité
    00:00 +27°C° 0 mm 4 m/s 759 mmHg 44%
    01:00 +26°C° 0 mm 5 m/s 759 mmHg 50%
    02:00 +23°C° 0 mm 7 m/s 759 mmHg 56%
    03:00 +23°C° 0 mm 7 m/s 760 mmHg 56%
    04:00 +22°C° 0 mm 7 m/s 760 mmHg 56%
    05:00 +21°C° 0 mm 8 m/s 761 mmHg 56%
    06:00 +21°C° 0 mm 7 m/s 762 mmHg 57%
    07:00 +22°C° 0 mm 7 m/s 762 mmHg 57%
    08:00 +22°C° 0 mm 7 m/s 763 mmHg 58%
    09:00 +23°C° 0 mm 7 m/s 763 mmHg 54%
    10:00 +24°C° 0 mm 6 m/s 763 mmHg 51%
    11:00 +26°C° 0 mm 6 m/s 764 mmHg 48%
    12:00 +27°C° 0 mm 6 m/s 763 mmHg 44%
    13:00 +28°C° 0 mm 6 m/s 763 mmHg 41%
    14:00 +29°C° 0 mm 6 m/s 763 mmHg 38%
    15:00 +28°C° 0 mm 7 m/s 763 mmHg 42%
    16:00 +27°C° 0 mm 7 m/s 763 mmHg 46%
    17:00 +27°C° 0 mm 8 m/s 763 mmHg 49%
    18:00 +24°C° 0 mm 8 m/s 763 mmHg 52%
    19:00 +23°C° 0 mm 8 m/s 764 mmHg 55%
    20:00 +22°C° 0 mm 8 m/s 765 mmHg 58%
    21:00 +21°C° 0 mm 7 m/s 765 mmHg 59%
    22:00 +21°C° 0 mm 7 m/s 765 mmHg 60%
    23:00 +20°C° 0 mm 7 m/s 766 mmHg 61%

    Après-demain, 18 Janvier, Vendredi

    Heure Température Précipitation Vent Pression Humidité
    00:00 +20°C° 0 mm 6 m/s 765 mmHg 62%
    01:00 +20°C° 0 mm 6 m/s 765 mmHg 62%
    02:00 +20°C° 0 mm 5 m/s 765 mmHg 63%
    03:00 +20°C° 0 mm 5 m/s 765 mmHg 62%
    04:00 +20°C° 0 mm 5 m/s 765 mmHg 61%
    05:00 +20°C° 0 mm 5 m/s 765 mmHg 61%
    06:00 +20°C° 0 mm 5 m/s 765 mmHg 60%
    07:00 +21°C° 0 mm 4 m/s 765 mmHg 60%
    08:00 +21°C° 0 mm 4 m/s 765 mmHg 60%
    09:00 +22°C° 0 mm 4 m/s 765 mmHg 57%
    10:00 +25°C° 0 mm 4 m/s 765 mmHg 54%
    11:00 +26°C° 0 mm 4 m/s 765 mmHg 50%
    12:00 +27°C° 0 mm 4 m/s 764 mmHg 48%
    13:00 +28°C° 0 mm 4 m/s 764 mmHg 46%
    14:00 +28°C° 0 mm 4 m/s 763 mmHg 43%
    15:00 +28°C° 0 mm 5 m/s 763 mmHg 46%
    16:00 +28°C° 0 mm 5 m/s 763 mmHg 50%
    17:00 +27°C° 0 mm 6 m/s 762 mmHg 53%
    18:00 +26°C° 0 mm 6 m/s 763 mmHg 56%
    19:00 +26°C° 0 mm 6 m/s 763 mmHg 60%
    20:00 +24°C° 0 mm 6 m/s 764 mmHg 63%
    21:00 +24°C° 0 mm 6 m/s 764 mmHg 64%
    22:00 +23°C° 0 mm 6 m/s 764 mmHg 64%
    23:00 +23°C° 0 mm 6 m/s 765 mmHg 64%

    19 Janvier, Samedi

    Heure Température Précipitation Vent Pression Humidité
    00:00 +23°C° 0 mm 6 m/s 764 mmHg 65%
    01:00 +23°C° 0 mm 5 m/s 764 mmHg 65%
    02:00 +22°C° 0 mm 5 m/s 764 mmHg 66%
    03:00 +22°C° 0 mm 5 m/s 764 mmHg 67%
    04:00 +22°C° 0 mm 4 m/s 764 mmHg 67%
    05:00 +21°C° 0 mm 4 m/s 764 mmHg 68%
    06:00 +22°C° 0 mm 4 m/s 765 mmHg 65%
    07:00 +23°C° 0 mm 4 m/s 765 mmHg 62%
    08:00 +23°C° 0 mm 4 m/s 765 mmHg 59%
    09:00 +25°C° 0 mm 4 m/s 765 mmHg 54%
    10:00 +26°C° 0 mm 4 m/s 765 mmHg 50%
    11:00 +27°C° 0 mm 4 m/s 765 mmHg 45%
    12:00 +28°C° 0 mm 4 m/s 764 mmHg 42%
    13:00 +28°C° 0 mm 4 m/s 763 mmHg 40%
    14:00 +29°C° 0 mm 4 m/s 763 mmHg 37%
    15:00 +29°C° 0 mm 5 m/s 762 mmHg 39%
    16:00 +29°C° 0 mm 5 m/s 762 mmHg 40%
    17:00 +28°C° 0 mm 5 m/s 762 mmHg 42%
    18:00 +28°C° 0 mm 5 m/s 762 mmHg 48%
    19:00 +27°C° 0 mm 5 m/s 762 mmHg 55%
    20:00 +26°C° 0 mm 5 m/s 762 mmHg 62%
    21:00 +26°C° 0 mm 5 m/s 763 mmHg 61%
    22:00 +26°C° 0 mm 6 m/s 763 mmHg 61%
    23:00 +26°C° 0 mm 6 m/s 763 mmHg 61%

    20 Janvier, Dimanche

    Heure Température Précipitation Vent Pression Humidité
    00:00 +24°C° 0 mm 6 m/s 763 mmHg 63%
    01:00 +23°C° 0 mm 6 m/s 763 mmHg 66%
    02:00 +23°C° 0 mm 5 m/s 762 mmHg 68%
    03:00 +22°C° 0 mm 5 m/s 762 mmHg 69%
    04:00 +22°C° 0 mm 4 m/s 762 mmHg 70%
    05:00 +22°C° 0 mm 4 m/s 762 mmHg 71%
    06:00 +22°C° 0 mm 4 m/s 763 mmHg 68%
    07:00 +23°C° 0 mm 4 m/s 763 mmHg 66%
    08:00 +25°C° 0 mm 4 m/s 763 mmHg 63%
    09:00 +26°C° 0 mm 4 m/s 762 mmHg 58%
    10:00 +27°C° 0 mm 4 m/s 762 mmHg 53%
    11:00 +29°C° 0 mm 3 m/s 762 mmHg 47%
    12:00 +29°C° 0 mm 3 m/s 761 mmHg 45%
    13:00 +30°C° 0 mm 4 m/s 760 mmHg 43%
    14:00 +32°C° 0 mm 4 m/s 760 mmHg 40%
    15:00 +32°C° 0 mm 4 m/s 759 mmHg 41%
    16:00 +32°C° 0 mm 4 m/s 759 mmHg 41%
    17:00 +30°C° 0 mm 4 m/s 758 mmHg 42%
    18:00 +30°C° 0 mm 4 m/s 758 mmHg 47%
    19:00 +29°C° 0 mm 4 m/s 758 mmHg 52%
    20:00 +28°C° 0 mm 4 m/s 758 mmHg 57%
    21:00 +27°C° 0 mm 4 m/s 759 mmHg 58%
    22:00 +27°C° 0 mm 5 m/s 759 mmHg 60%
    23:00 +27°C° 0 mm 5 m/s 759 mmHg 62%

    21 Janvier, Lundi

    Heure Température Précipitation Vent Pression Humidité
    00:00 +26°C° 0 mm 5 m/s 759 mmHg 64%
    01:00 +26°C° 0 mm 5 m/s 759 mmHg 67%
    02:00 +25°C° 0 mm 5 m/s 758 mmHg 69%
    03:00 +25°C° 0 mm 5 m/s 758 mmHg 71%
    04:00 +23°C° 0 mm 4 m/s 758 mmHg 73%
    05:00 +23°C° 0 mm 4 m/s 758 mmHg 74%
    06:00 +25°C° 0 mm 4 m/s 758 mmHg 72%
    07:00 +25°C° 0 mm 3 m/s 758 mmHg 69%
    08:00 +26°C° 0 mm 3 m/s 758 mmHg 67%
    09:00 +28°C° 0 mm 3 m/s 758 mmHg 60%
    10:00 +29°C° 0 mm 2 m/s 758 mmHg 54%
    11:00 +31°C° 0 mm 2 m/s 757 mmHg 48%
    12:00 +32°C° 0 mm 2 m/s 757 mmHg 45%
    13:00 +32°C° 0 mm 2 m/s 756 mmHg 43%
    14:00 +34°C° 0 mm 3 m/s 756 mmHg 40%
    15:00 +34°C° 0 mm 3 m/s 755 mmHg 42%
    16:00 +34°C° 0 mm 3 m/s 755 mmHg 43%
    17:00 +33°C° 0 mm 4 m/s 755 mmHg 44%
    18:00 +32°C° 0 mm 4 m/s 755 mmHg 51%
    19:00 +30°C° 0 mm 4 m/s 755 mmHg 57%
    20:00 +29°C° 0 mm 4 m/s 755 mmHg 64%
    21:00 +29°C° 0 mm 4 m/s 756 mmHg 65%
    22:00 +28°C° 0 mm 3 m/s 756 mmHg 65%
    23:00 +28°C° 0 mm 3 m/s 756 mmHg 66%
    Voir plus